EW4338 Weather Reports


Display with metric or nautical units.
time (UTC)temp
F
wind
direction
speed
MPH
gust
MPH
rain 1hr
in
rain 24hr
in
rain mn
in
humidity
%
barometer
mb
20260504194556 58 179 22.0 34.0 0.00 0.00 0.00 36 1010.6
20260504194051 58 189 25.0 34.0 0.00 0.00 0.00 36 1010.6
20260504193553 60 184 16.0 27.0 0.00 0.00 0.00 31 1010.7
20260504193050 60 225 15.0 26.0 0.00 0.00 0.00 28 1010.6
20260504192549 60 244 17.0 26.0 0.00 0.00 0.00 27 1010.5
20260504192050 60 230 17.0 24.0 0.00 0.00 0.00 29 1010.5
20260504191549 60 189 14.0 24.0 0.00 0.00 0.00 29 1010.6
20260504191049 60 235 17.0 24.0 0.00 0.00 0.00 27 1010.6
20260504190549 61 230 12.0 18.0 0.00 0.00 0.00 28 1010.7
20260504190048 61 254 4.0 11.0 0.00 0.00 0.00 29 1010.8
20260504185547 61 322 3.0 14.0 0.00 0.00 0.00 29 1010.9
20260504185046 61 240 10.0 15.0 0.00 0.00 0.00 29 1010.9
20260504184546 62 294 9.0 20.0 0.00 0.00 0.00 27 1011.0
20260504184046 63 290 8.0 20.0 0.00 0.00 0.00 27 1011.0
20260504183545 63 280 9.0 14.0 0.00 0.00 0.00 26 1011.1
20260504183045 63 297 7.0 16.0 0.00 0.00 0.00 28 1011.1
20260504182542 63 322 7.0 16.0 0.00 0.00 0.00 28 1011.2
20260504182042 61 300 6.0 16.0 0.00 0.00 0.00 30 1011.3
20260504181540 61 325 10.0 16.0 0.00 0.00 0.00 30 1011.5
20260504181039 60 270 8.0 16.0 0.00 0.00 0.00 32 1011.7
20260504180537 60 302 10.0 16.0 0.00 0.00 0.00 32 1011.8
20260504180045 60 226 7.0 16.0 0.00 0.00 0.00 32 1011.9
20260504175535 60 264 9.0 17.0 0.00 0.00 0.00 32 1012.0
20260504175035 59 269 10.0 18.0 0.00 0.00 0.00 33 1012.1
20260504174532 58 273 11.0 19.0 0.00 0.00 0.00 34 1012.3
20260504174032 58 287 12.0 17.0 0.00 0.00 0.00 34 1012.3
20260504173531 57 278 11.0 17.0 0.00 0.00 0.00 35 1012.3
20260504173032 57 283 10.0 16.0 0.00 0.00 0.00 35 1012.4
20260504172526 56 271 6.0 14.0 0.00 0.00 0.00 36 1012.5
20260504172025 56 323 8.0 16.0 0.00 0.00 0.00 36 1012.6
20260504171530 56 304 10.0 14.0 0.00 0.00 0.00 36 1012.7
20260504171022 55 275 9.0 17.0 0.00 0.00 0.00 36 1012.7
20260504170520 55 235 7.0 22.0 0.00 0.00 0.00 37 1012.7
20260504151000 54 240 9.0 17.0 0.00 0.00 0.00 34 1012.5
20260504150501 54 230 10.0 17.0 0.00 0.00 0.00 35 1012.5
20260504150111 54 175 8.0 16.0 0.00 0.00 0.00 34 1012.7
20260504141051 53 240 17.0 22.0 0.00 0.00 0.00 33 1012.5
20260504140550 53 247 16.0 21.0 0.00 0.00 0.00 32 1012.6
20260504130543 52 257 4.0 8.0 0.00 0.00 0.00 28 1012.8
20260504110527 53 246 13.0 17.0 0.00 0.00 0.00 26 1012.1
20260504100522 50 211 8.0 12.0 0.00 0.00 0.00 28 1012.4
20260504082005 50 235 3.0 5.0 0.00 0.00 0.00 29 1013.2
20260504081505 51 291 2.0 5.0 0.00 0.00 0.00 28 1013.2
20260504081008 51 291 0.0 10.0 0.00 0.00 0.00 28 1013.3
20260504080505 51 284 5.0 10.0 0.00 0.00 0.00 27 1013.3
20260504050543 50 192 4.0 9.0 0.00 0.00 0.00 35 1014.2
20260504045542 50 186 4.0 9.0 0.00 0.00 0.00 36 1014.2
20260504045043 50 208 4.0 9.0 0.00 0.00 0.00 36 1014.2
20260504044542 50 208 4.0 8.0 0.00 0.00 0.00 36 1014.3
20260504044041 51 205 3.0 8.0 0.00 0.00 0.00 35 1014.3
20260504043541 52 267 4.0 8.0 0.00 0.00 0.00 34 1014.3
20260504043041 51 259 4.0 8.0 0.00 0.00 0.00 34 1014.3
20260504042541 51 190 3.0 5.0 0.00 0.00 0.00 36 1014.3
20260504042040 51 235 3.0 6.0 0.00 0.00 0.00 35 1014.3
20260504041540 52 207 3.0 8.0 0.00 0.00 0.00 35 1014.3
20260504041039 52 215 2.0 10.0 0.00 0.00 0.00 34 1014.4
20260504040541 53 200 5.0 10.0 0.00 0.00 0.00 34 1014.4
20260504040100 54 206 5.0 10.0 0.00 0.00 0.00 33 1014.4
20260504035539 54 235 7.0 13.0 0.00 0.00 0.00 32 1014.3
20260504035039 54 235 8.0 14.0 0.00 0.00 0.00 32 1014.4
20260504034540 54 235 10.0 14.0 0.00 0.00 0.00 33 1014.4
20260504034038 54 210 5.0 14.0 0.00 0.00 0.00 33 1014.5
20260504033537 54 240 10.0 14.0 0.00 0.00 0.00 33 1014.5
20260504033037 54 244 9.0 13.0 0.00 0.00 0.00 34 1014.5
20260504032538 54 230 8.0 11.0 0.00 0.00 0.00 34 1014.5
20260504032037 54 191 7.0 12.0 0.00 0.00 0.00 34 1014.5
20260504031538 54 196 9.0 12.0 0.00 0.00 0.00 33 1014.5
20260504031037 54 202 9.0 12.0 0.00 0.00 0.00 33 1014.4
20260504030536 54 230 8.0 12.0 0.00 0.00 0.00 33 1014.5
20260504030036 54 208 5.0 12.0 0.00 0.00 0.00 33 1014.4
20260504025536 54 203 6.0 12.0 0.00 0.00 0.00 33 1014.4
20260504025038 55 221 7.0 15.0 0.00 0.00 0.00 33 1014.4
20260504024534 55 235 11.0 15.0 0.00 0.00 0.00 32 1014.4
20260504024034 55 225 9.0 15.0 0.00 0.00 0.00 32 1014.3
20260504023535 55 250 9.0 14.0 0.00 0.00 0.00 32 1014.3
20260504023034 55 240 10.0 14.0 0.00 0.00 0.00 31 1014.3
20260504022537 55 244 9.0 12.0 0.00 0.00 0.00 31 1014.4
20260504022034 56 235 6.0 11.0 0.00 0.00 0.00 31 1014.4
20260504021534 56 240 7.0 11.0 0.00 0.00 0.00 30 1014.3
20260504021033 56 201 4.0 13.0 0.00 0.00 0.00 30 1014.2
20260504020534 56 197 9.0 15.0 0.00 0.00 0.00 30 1014.2
20260504020035 57 209 11.0 17.0 0.00 0.00 0.00 29 1014.1
20260504015533 57 187 14.0 17.0 0.00 0.00 0.00 29 1014.1
20260504015032 57 200 11.0 14.0 0.00 0.00 0.00 29 1014.1
20260504014532 57 202 10.0 13.0 0.00 0.00 0.00 29 1014.1
20260504014032 58 200 7.0 13.0 0.00 0.00 0.00 28 1014.1
20260504013532 58 200 7.0 14.0 0.00 0.00 0.00 26 1014.0
20260504013033 59 235 11.0 17.0 0.00 0.00 0.00 25 1014.0
20260504012536 59 251 10.0 21.0 0.00 0.00 0.00 25 1013.9
20260504012032 59 263 14.0 21.0 0.00 0.00 0.00 25 1013.9
20260504011532 59 230 11.0 20.0 0.00 0.00 0.00 25 1013.9
20260504011032 59 268 11.0 20.0 0.00 0.00 0.00 25 1013.9
20260504010531 59 240 10.0 22.0 0.00 0.00 0.00 26 1014.0
20260504010031 59 244 14.0 22.0 0.00 0.00 0.00 26 1013.8
20260504005530 58 240 11.0 18.0 0.00 0.00 0.00 27 1014.0
20260504005031 59 271 11.0 21.0 0.00 0.00 0.00 28 1014.0
20260504004540 59 281 8.0 26.0 0.00 0.00 0.00 28 1014.3
20260504004029 59 212 17.0 30.0 0.00 0.00 0.00 28 1014.2
20260504003532 60 235 19.0 30.0 0.00 0.00 0.00 28 1014.3
20260504003030 60 281 19.0 30.0 0.00 0.00 0.00 28 1014.3
20260504002528 59 244 22.0 30.0 0.00 0.00 0.00 28 1014.1
20260504002027 59 235 21.0 30.0 0.00 0.00 0.00 28 1014.2
20260504001527 60 267 15.0 25.0 0.00 0.00 0.00 27 1014.5
20260504001028 61 259 11.0 19.0 0.00 0.00 0.00 27 1014.4
20260504000526 61 235 14.0 22.0 0.00 0.00 0.00 27 1014.5
20260504000026 59 262 16.0 21.0 0.00 0.00 0.00 28 1014.3
20260503235525 58 205 11.0 28.0 0.00 0.00 0.00 30 1014.3
20260503235027 59 235 17.0 29.0 0.00 0.00 0.00 28 1014.6
20260503234527 59 240 21.0 29.0 0.00 0.00 0.00 27 1014.6
20260503234024 60 244 9.0 18.0 0.00 0.00 0.00 27 1014.9
20260503233524 60 269 5.0 13.0 0.00 0.00 0.00 28 1015.0
20260503233024 59 282 8.0 13.0 0.00 0.00 0.00 27 1015.0
20260503232526 59 317 5.0 14.0 0.00 0.00 0.00 27 1015.0
20260503232023 60 321 6.0 13.0 0.00 0.00 0.00 27 1014.9
20260503231523 60 290 5.0 15.0 0.00 0.00 0.00 27 1014.9
20260503231025 60 340 8.0 15.0 0.00 0.00 0.00 26 1014.7
20260503230524 61 312 6.0 12.0 0.00 0.00 0.00 26 1014.6
20260503230028 61 340 4.0 14.0 0.00 0.00 0.00 26 1014.6
20260503225525 62 336 6.0 14.0 0.00 0.00 0.00 25 1014.7
20260503225024 63 338 5.0 12.0 0.00 0.00 0.00 26 1014.6
20260503224524 62 284 2.0 15.0 0.00 0.00 0.00 27 1014.7
20260503224022 62 337 8.0 15.0 0.00 0.00 0.00 26 1014.6
20260503223622 61 315 6.0 16.0 0.00 0.00 0.00 27 1014.6
20260503223021 61 291 6.0 18.0 0.00 0.00 0.00 27 1014.5
20260503222521 61 311 11.0 18.0 0.00 0.00 0.00 26 1014.4
20260503222020 61 346 10.0 24.0 0.00 0.00 0.00 27 1014.6
20260503221520 60 306 14.0 24.0 0.00 0.00 0.00 28 1014.6
20260503221020 61 304 10.0 22.0 0.00 0.00 0.00 26 1014.7
20260503220523 63 336 14.0 21.0 0.00 0.00 0.00 24 1014.6
20260503220019 64 302 3.0 11.0 0.00 0.00 0.00 22 1014.8
20260503215517 64 323 3.0 12.0 0.00 0.00 0.00 22 1015.0
20260503215017 64 321 5.0 12.0 0.00 0.00 0.00 21 1015.0
20260503214516 64 310 7.0 13.0 0.00 0.00 0.00 22 1015.1
20260503214017 63 283 8.0 23.0 0.00 0.00 0.00 22 1015.4
20260503213514 61 293 6.0 23.0 0.00 0.00 0.00 24 1015.5
20260503213018 61 263 14.0 24.0 0.00 0.00 0.00 24 1015.7
20260503212516 61 186 17.0 25.0 0.00 0.00 0.00 23 1015.8
20260503212014 62 273 19.0 27.0 0.00 0.00 0.00 22 1015.6
20260503211513 62 292 17.0 27.0 0.00 0.00 0.00 21 1015.7
20260503211020 63 240 13.0 19.0 0.00 0.00 0.00 21 1015.6
20260503210513 64 206 11.0 20.0 0.00 0.00 0.00 19 1015.6
20260503210012 64 177 13.0 20.0 0.00 0.00 0.00 19 1015.8
20260503205514 63 275 11.0 22.0 0.00 0.00 0.00 21 1015.7
20260503205010 63 283 12.0 21.0 0.00 0.00 0.00 21 1015.9
20260503204513 63 225 15.0 23.0 0.00 0.00 0.00 21 1016.0
20260503204012 63 235 12.0 22.0 0.00 0.00 0.00 19 1016.2
20260503203508 63 220 13.0 27.0 0.00 0.00 0.00 19 1016.2
20260503203013 64 240 16.0 27.0 0.00 0.00 0.00 18 1016.3
20260503202507 65 230 15.0 21.0 0.00 0.00 0.00 18 1016.3
20260503202007 63 198 11.0 19.0 0.00 0.00 0.00 20 1016.4
20260503201506 62 178 13.0 32.0 0.00 0.00 0.00 20 1016.5
20260503201006 62 270 20.0 33.0 0.00 0.00 0.00 20 1016.5
20260503200505 63 265 24.0 33.0 0.00 0.00 0.00 18 1016.3
20260503200008 65 235 15.0 22.0 0.00 0.00 0.00 17 1016.7
20260503195504 65 260 8.0 20.0 0.00 0.00 0.00 18 1016.7
20260503195003 63 282 9.0 20.0 0.00 0.00 0.00 19 1016.5